Weather History for Pompano Beach, FL

Change the Weather History Date:

Thursday, January 3, 2013

  Actual Average Record
Temperature  
Mean Temperature 73 °F -  
Max Temperature 80 °F 78 °F 85 °F (1967)
Min Temperature 66 °F 62 °F 36 °F (1962)
Cooling Degree Days 8    
Growing Degree Days 23 (Base 50)    
Moisture  
Dew Point 67 °F    
Average Humidity 82    
Maximum Humidity 97    
Minimum Humidity 60    
Precipitation  
Precipitation 0.00 in - - ()
Sea Level Pressure  
Sea Level Pressure 30.09 in    
Wind  
Wind Speed 5 mph (South)    
Max Wind Speed 15 mph    
Max Gust Speed -    
Visibility 10 miles    
Events      
Averages and records for this station are not official NWS values.
T = Trace of Precipitation, MM = Missing Value Source: NWS Daily Summary

Daily Weather History Graph

Daily Weather History Graph

Search for Another Location

Airport:

Trip Planner

Search our weather history database for the weather conditions in past years. The results will help you decide how hot, cold, wet, or windy it might be!

Date:

Astronomy

Jan. 03, 2013 Rise Set
Actual Time 7:08 AM EST 5:41 PM EST
Civil Twilight 6:43 AM EST 6:06 PM EST
Nautical Twilight 6:14 AM EST 6:35 PM EST
Astronomical Twilight 5:46 AM EST 7:03 PM EST
Moon 11:34 PM EST (1/3) 10:56 AM EST (1/3)
Length of Visible Light 11h 23m
Length of Day
10h 32m
Waning Gibbous, 65% of the Moon is Illuminated
Jan 3
Waning Gibbous
Jan 4
Last Quarter
Jan 11
New
Jan 18
First Quarter
Jan 26
Full

Hourly Weather History & Observations

Time (EST) Temp. Heat Index Dew Point Humidity Pressure Visibility Wind Dir Wind Speed Gust Speed Precip Events Conditions
12:27 AM 71.6 °F - 69.8 °F 94% 30.06 in 10.0 mi West 4.6 mph - 0.00 in   Overcast
12:53 AM 72.0 °F - 69.1 °F 91% 30.07 in 10.0 mi WNW 6.9 mph - 0.00 in   Overcast
1:53 AM 70.0 °F - 66.9 °F 90% 30.07 in 10.0 mi NW 5.8 mph - N/A   Overcast
3:53 AM 68.0 °F - 66.9 °F 96% 30.06 in 10.0 mi NNW 3.5 mph - N/A   Clear
4:53 AM 66.9 °F - 66.0 °F 97% 30.06 in 10.0 mi WNW 4.6 mph - N/A   Mostly Cloudy
5:53 AM 66.9 °F - 66.0 °F 97% 30.07 in 10.0 mi Calm Calm - N/A   Overcast
6:53 AM 66.9 °F - 66.0 °F 97% 30.09 in 10.0 mi Calm Calm - N/A   Overcast
7:53 AM 69.1 °F - 66.9 °F 93% 30.10 in 9.0 mi Calm Calm - N/A   Mostly Cloudy
8:53 AM 72.0 °F - 66.9 °F 84% 30.12 in 10.0 mi Calm Calm - N/A   Scattered Clouds
9:53 AM 75.0 °F - 66.9 °F 76% 30.12 in 10.0 mi SSE 3.5 mph - N/A   Clear
10:53 AM 78.1 °F - 66.9 °F 68% 30.12 in 10.0 mi SE 9.2 mph - N/A   Clear
11:53 AM 79.0 °F - 66.0 °F 64% 30.10 in 10.0 mi SSE 10.4 mph - N/A   Clear
12:53 PM 80.1 °F 82.1 °F 66.0 °F 62% 30.07 in 10.0 mi SE 13.8 mph - N/A   Partly Cloudy
1:53 PM 79.0 °F - 68.0 °F 69% 30.05 in 10.0 mi SSE 13.8 mph - N/A   Scattered Clouds
2:53 PM 79.0 °F - 66.0 °F 64% 30.04 in 10.0 mi SSE 15.0 mph - N/A   Partly Cloudy
3:53 PM 79.0 °F - 64.0 °F 60% 30.06 in 10.0 mi South 11.5 mph - N/A   Clear
4:53 PM 77.0 °F - 66.0 °F 69% 30.07 in 10.0 mi SSE 9.2 mph - N/A   Partly Cloudy
5:53 PM 75.0 °F - 66.9 °F 76% 30.09 in 10.0 mi South 6.9 mph - N/A   Clear
6:53 PM 75.0 °F - 68.0 °F 79% 30.11 in 10.0 mi South 5.8 mph - N/A   Clear
7:53 PM 73.9 °F - 68.0 °F 82% 30.12 in 10.0 mi SSE 6.9 mph - N/A   Clear
8:53 PM 73.9 °F - 69.1 °F 85% 30.14 in 10.0 mi South 5.8 mph - N/A   Clear
9:53 PM 72.0 °F - 68.0 °F 87% 30.14 in 10.0 mi South 4.6 mph - N/A   Clear
10:53 PM 72.0 °F - 68.0 °F 87% 30.14 in 10.0 mi Calm Calm - N/A   Clear
11:53 PM 69.1 °F - 66.9 °F 93% 30.14 in 10.0 mi Calm Calm - N/A   Clear